Regional Weather Roundup
Issued by NWS Northern Indiana

Home | Current Version | Previous Version | Graphics & Text | Print | Product List | Glossary On
Versions: 1 2 3 4 5 6 7 8 9 10 11 12 13 14 15 16 17 18 19 20 21 22 23 24 25 26 27 28 29 30 31 32 33 34 35 36 37 38 39 40 41 42 43 44 45 46 47 48 49 50
726
ASUS43 KIWX 301510
RWRIWX

KIWX WEATHER ROUNDUP
NATIONAL WEATHER SERVICE NORTHERN INDIANA
1100 AM EDT MON MAY 30 2016

NOTE: "FAIR" INDICATES FEW OR NO CLOUDS BELOW 12,000 FEET WITH NO
SIGNIFICANT WEATHER AND/OR OBSTRUCTIONS TO VISIBILITY.

* THESE STATIONS ARE NOT UNDER NWS QUALITY CONTROL. THEY ALSO MAY NOT
  REPORT WEATHER SUCH AS PRECIPITATION OR FOG.

INZ001>027-301600-
NORTHERN INDIANA

CITY           SKY/WX    TMP DP  RH WIND       PRES   REMARKS
GARY*          MOSUNNY   81  64  57 SW7       30.04S
VALPARAISO     SUNNY     78  58  49 MISG      30.05S
MICHIGAN CITY* SUNNY     73  61  64 CALM      30.04F
LAPORTE*       SUNNY     78  59  51 CALM      30.04F
KNOX*          SUNNY     77  45  31 CALM      30.04F
SOUTH BEND     SUNNY     77  60  55 CALM      30.04S
ELKHART*       SUNNY     77  63  61 W5        30.04S
GOSHEN         SUNNY     78  59  51 VRB3      30.03F
MONTICELLO*    SUNNY     80  50  34 W5        30.05S
LOGANSPORT*    SUNNY     79  55  44 W5        30.07R
ROCHESTER*     SUNNY     81  61  50 W5        30.05F
WARSAW*        MOSUNNY   79  59  50 W8        30.04F
ANGOLA*          N/A     79  73  83 W7        30.03F
FORT WAYNE     PTSUNNY   80  56  43 W8        30.05F
HUNTINGTON*    SUNNY     78  58  50 W6        30.05S
PERU/GRISSOM   SUNNY     80  59  48 W8        30.05S
MARION*        CLOUDY    78  56  45 NW7       30.07S

$$
INZ028>050-301600-
CENTRAL INDIANA

CITY           SKY/WX    TMP DP  RH WIND       PRES   REMARKS
LAFAYETTE      SUNNY     79  55  43 VRB7      30.07R
KOKOMO*        SUNNY     81  57  44 NW8       30.06S
MUNCIE*        CLOUDY    80  56  43 VRB5      30.07S
INDIANAPOLIS   MOSUNNY   78  58  49 W3        30.07R

$$
MIZ043>046-050>051-056>058-064>065-071>073-077>080-301600-
SOUTHWEST LOWER MICHIGAN

CITY           SKY/WX    TMP DP  RH WIND       PRES   REMARKS
BATTLE CREEK   SUNNY     75  57  53 VRB5      30.03F
BENTON HARBOR  SUNNY     74  61  63 W6        30.03S
COLDWATER*     SUNNY     76  58  53 W3        30.03F
HILLSDALE*     SUNNY     76  53  44 W5        30.04S
HOLLAND        SUNNY     75  59  57 NW6       30.03S
GRAND RAPIDS   MOSUNNY   78  57  48 NW9       30.02S
KALAMAZOO      SUNNY     77  59  53 W6        30.03S
STURGIS*       SUNNY     76  59  55 CALM      30.03F
THREE RIVERS*  FAIR      78  58  51 W6        30.03F

$$
OHZ001>008-015>018-024>025-301600-
NORTHWEST OHIO

CITY           SKY/WX    TMP DP  RH WIND       PRES   REMARKS
WAUSEON*         N/A     79  79 100 VRB5G13   30.02F
DEFIANCE       SUNNY     79  58  48 NW6       30.03F
FINDLAY        MOSUNNY   80  56  43 W10       30.03S
TOLEDO EXPRESS SUNNY     78  57  48 CALM      30.02S
TOLEDO METCALF MOSUNNY   78  57  48 MISG      30.02F
LIMA           SUNNY     78  58  49 VRB7      30.05S

$$
AND FOR LAKE MICHIGAN COASTAL AND OPEN LAKE BUOY OBSERVATIONS

STATION/POSITION TEMP    WIND        PRES    VSBY  WAVE
                 AIR SEA DIR/SP/G                  HT/PER
                 (F)     (DEG/KT/KT) (MB)    (MI)  (FT/S)
CALUMET HARBOR    76     210/  4/  5 1016.3S
MICHIGAN CITY     68     230/  6/  6   N/A
BURNS HARBOR      70     290/  3/  4 1017.6S
SAINT JOSEPH      67     200/  6/  7 1018.3R
SOUTH LAKE BUOY   58 54  240/  2/  2 1016.4F         0
4 MI NW BRIDGMAN  63 63  210/  2/  4   N/A           1
MICHIGAN CITY     67 59  220/  2/  2   N/A           0

$$
&&




USA.gov is the U.S. government's official web portal to all federal, state and local government web resources and services.